{"data":{"norad_id":68285,"intl_designator":"2026-055Z","name":"STARLINK-36725","alt_names":[],"object_type":"PAYLOAD","status":"ACTIVE","operator":null,"country":"US","launch_date":"2026-03-19","launch_site_code":"AFETR","launch_vehicle":null,"mission":null,"orbit_class":"UNKNOWN","rcs_meters":null,"size_class":null,"mass_kg":null,"dimensions":null,"purposes":["comms"],"wikipedia_slug":null,"has_3d_model":false,"image_url":null,"decayed_at":null,"tle_current":{"epoch":"2026-09-19T04:33:54.595872Z","epoch_age_seconds":164256,"freshness":"FRESH","line1":"1 68285U 26055Z   26262.19021523  .00017633  00000+0  53152-3 0  9996","line2":"2 68285  53.1574 137.8592 0001254  80.3784 279.7361 15.34416309 29599","mean_motion":15.34416309,"eccentricity":0.0001254,"inclination_deg":53.1574,"raan_deg":137.8592,"arg_perigee_deg":80.3784,"mean_anomaly_deg":279.7361,"bstar":0.00053152,"rev_number":2959,"period_min":93.846760592532,"perigee_km":461.79693156392,"apogee_km":463.51260213905,"semimajor_km":6840.7917668515,"source":"CELESTRAK","updated_at":"2026-09-20T09:00:43.851205Z"}}}